Torna al catalogo

FENGYUN 1C DEB

AttivoPO
NORAD 36148·DEBRIS·🇨🇳 China

Lanciato May 10, 1999 da Taiyuan Satellite Launch Center

Loading…

Prossimi Passaggi (prossime 24 ore)

TLE

In scadenzaSource: Space-Track

Epoca: Sep 9, 2026, 18:22 UTC

1 36148U 99025DRV 26252.76539132  .00001693  00000-0  10944-2 0  9999
2 36148  98.4164  81.8362 0276625 325.2702  33.0666 13.87014988939995

Traccia FENGYUN 1C DEB in tempo reale con AllMySat

Download on the App Store